Location: *
(60.1759°S, 155.0663°W)
Time: 21:52:29
(UTC+00:00)

Cosmos 968 Rocket - Pass Details

Date: 17 September 2019
Orbit: 740 x 771 km, 74.0° (Epoch: 20 October)

Event Time Altitude Azimuth Distance (km) Brightness Sun altitude
Exits shadow 12:15:37 55° 67° (ENE) 932 3.9 -27.6°
Maximum altitude 12:15:37 55° 67° (ENE) 932 3.9 -27.6°
Drops below altitude 10° 12:20:47 10° 143° (SE) 2,331 7.0 -27.2°
Sets 12:23:12 0° 147° (SSE) 3,257 8.1 -27.1°
